Weather History for KHJH - March, 2013

Change the Weather History Date:

Wednesday, March 20, 2013

  Actual Average Record
Temperature  
Mean Temperature 32 °F -  
Max Temperature 43 °F 53 °F 80 °F (1976)
Min Temperature 21 °F 29 °F 3 °F (1965)
Degree Days  
Heating Degree Days 33    
Moisture  
Dew Point 16 °F    
Average Humidity 54    
Maximum Humidity 79    
Minimum Humidity 27    
Precipitation  
Precipitation 0.00 in - - ()
Sea Level Pressure  
Sea Level Pressure 30.28 in    
Wind  
Wind Speed 8 mph (North)    
Max Wind Speed 14 mph    
Max Gust Speed 18 mph    
Visibility 10 miles    
Events      
Averages and records for this station are not official NWS values.
T = Trace of Precipitation, MM = Missing Value Source: NWS Daily Summary

Daily Weather History Graph

Daily Weather History Graph

Search for Another Location

Airport or City:

Trip Planner

Search our weather history database for the weather conditions in past years. The results will help you decide how hot, cold, wet, or windy it might be!

Date:

Astronomy

Mar. 20, 2013 Rise Set
Actual Time 7:33 AM CDT 7:42 PM CDT
Civil Twilight 7:06 AM CDT 8:09 PM CDT
Nautical Twilight 6:34 AM CDT 8:41 PM CDT
Astronomical Twilight 6:02 AM CDT 9:13 PM CDT
Moon 1:18 PM CDT (3/20) 3:14 AM CDT (3/20)
Length of Visible Light 13h 03m
Length of Day
12h 09m
First Quarter, 59% of the Moon is Illuminated
Mar 20
First Quarter
Mar 27
Full
Apr 2
Last Quarter
Apr 10
New
Apr 18
First Quarter

Hourly Weather History & Observations

Time (CDT) Temp. Windchill Dew Point Humidity Pressure Visibility Wind Dir Wind Speed Gust Speed Precip Events Conditions
12:15 AM 36.3 °F 29.5 °F 22.3 °F 57% 30.32 in 10.0 mi North 9.2 mph - N/A   Mostly Cloudy
12:35 AM 35.6 °F 27.5 °F 23.7 °F 62% 30.34 in 10.0 mi NNE 11.5 mph - N/A   Overcast
12:55 AM 35.1 °F 26.4 °F 24.3 °F 65% 30.34 in 10.0 mi NNE 12.7 mph - N/A   Overcast
1:15 AM 34.0 °F 24.6 °F 23.7 °F 66% 30.34 in 10.0 mi NNE 13.8 mph - N/A   Overcast
1:35 AM 32.4 °F 23.5 °F 23.4 °F 69% 30.35 in 10.0 mi NNE 11.5 mph 18.4 mph N/A   Mostly Cloudy
1:55 AM 30.7 °F 22.6 °F 21.9 °F 70% 30.36 in 10.0 mi NNE 9.2 mph - N/A   Clear
2:15 AM 29.7 °F 22.8 °F 21.9 °F 73% 30.37 in 10.0 mi North 6.9 mph - N/A   Scattered Clouds
2:35 AM 29.1 °F 19.4 °F 20.5 °F 70% 30.37 in 10.0 mi North 11.5 mph 17.3 mph N/A   Scattered Clouds
2:55 AM 28.2 °F 20.2 °F 19.4 °F 70% 30.39 in 10.0 mi North 8.1 mph - N/A   Clear
3:15 AM 27.3 °F 19.9 °F 19.4 °F 72% 30.39 in 10.0 mi North 6.9 mph - N/A   Scattered Clouds
3:35 AM 26.6 °F 16.8 °F 18.0 °F 70% 30.39 in 10.0 mi North 10.4 mph - N/A   Clear
3:55 AM 25.7 °F 16.4 °F 17.2 °F 70% 30.39 in 10.0 mi North 9.2 mph - N/A   Clear
4:15 AM 25.7 °F 16.4 °F 17.4 °F 71% 30.39 in 10.0 mi North 9.2 mph - N/A   Mostly Cloudy
4:35 AM 25.5 °F 16.2 °F 17.1 °F 70% 30.39 in 10.0 mi North 9.2 mph - N/A   Mostly Cloudy
4:55 AM 24.8 °F 14.6 °F 15.1 °F 67% 30.40 in 10.0 mi North 10.4 mph - N/A   Scattered Clouds
5:15 AM 24.1 °F 16.0 °F 15.4 °F 70% 30.40 in 10.0 mi North 6.9 mph - N/A   Clear
5:35 AM 23.5 °F 16.4 °F 16.2 °F 73% 30.40 in 10.0 mi North 5.8 mph - N/A   Clear
5:55 AM 22.8 °F 18.2 °F 16.5 °F 77% 30.40 in 10.0 mi NNW 3.5 mph - N/A   Clear
6:15 AM 22.1 °F 17.4 °F 16.5 °F 79% 30.40 in 10.0 mi NNW 3.5 mph - N/A   Clear
6:35 AM 21.9 °F 17.2 °F 16.2 °F 78% 30.40 in 10.0 mi North 3.5 mph - N/A   Clear
6:55 AM 22.1 °F 15.9 °F 15.4 °F 76% 30.41 in 10.0 mi North 4.6 mph - N/A   Clear
7:15 AM 22.1 °F 14.7 °F 14.9 °F 74% 30.41 in 10.0 mi North 5.8 mph - N/A   Clear
7:35 AM 21.6 °F 14.0 °F 14.7 °F 75% 30.41 in 10.0 mi North 5.8 mph - N/A   Clear
7:55 AM 21.2 °F 16.4 °F 14.9 °F 77% 30.41 in 10.0 mi North 3.5 mph - N/A   Clear
8:15 AM 21.6 °F 16.8 °F 15.1 °F 76% 30.41 in 10.0 mi North 3.5 mph - N/A   Clear
8:35 AM 22.3 °F 13.9 °F 15.4 °F 75% 30.41 in 10.0 mi North 6.9 mph - N/A   Clear
8:55 AM 22.8 °F 12.2 °F 15.3 °F 73% 30.40 in 10.0 mi NNE 10.4 mph - N/A   Clear
9:15 AM 24.1 °F 14.4 °F 15.4 °F 70% 30.40 in 10.0 mi North 9.2 mph - N/A   Clear
9:35 AM 25.0 °F 15.5 °F 15.8 °F 68% 30.41 in 10.0 mi NNW 9.2 mph - N/A   Clear
9:55 AM 25.7 °F 17.1 °F 15.4 °F 65% 30.41 in 10.0 mi North 8.1 mph - N/A   Clear
10:15 AM 26.4 °F 19.8 °F 16.0 °F 65% 30.41 in 10.0 mi North 5.8 mph - N/A   Clear
10:35 AM 27.5 °F 18.0 °F 16.7 °F 64% 30.41 in 10.0 mi North 10.4 mph - N/A   Clear
10:55 AM 28.9 °F 21.1 °F 16.7 °F 60% 30.40 in 10.0 mi NW 8.1 mph - N/A   Clear
11:15 AM 30.0 °F 20.5 °F 15.4 °F 55% 30.40 in 10.0 mi NNW 11.5 mph - N/A   Clear
11:35 AM 30.6 °F 21.8 °F 14.7 °F 52% 30.39 in 10.0 mi North 10.4 mph - N/A   Clear
11:55 AM 32.0 °F 25.6 °F 14.9 °F 49% 30.39 in 10.0 mi North 6.9 mph - N/A   Clear
12:15 PM 32.0 °F 23.6 °F 14.0 °F 48% 30.37 in 10.0 mi North 10.4 mph - N/A   Clear
12:35 PM 33.4 °F 25.9 °F 14.0 °F 45% 30.36 in 10.0 mi North 9.2 mph - N/A   Clear
12:55 PM 34.7 °F 30.6 °F 13.3 °F 41% 30.35 in 10.0 mi NNW 4.6 mph - N/A   Clear
1:15 PM 35.8 °F 30.1 °F 13.8 °F 41% 30.33 in 10.0 mi North 6.9 mph - N/A   Clear
1:35 PM 36.3 °F 31.6 °F 12.9 °F 38% 30.32 in 10.0 mi WNW 5.8 mph - N/A   Clear
1:55 PM 37.4 °F 32.8 °F 12.7 °F 36% 30.30 in 10.0 mi NW 5.8 mph - N/A   Clear
2:15 PM 39.0 °F 34.8 °F 12.7 °F 34% 30.28 in 10.0 mi WNW 5.8 mph - N/A   Clear
2:35 PM 39.2 °F 33.6 °F 12.0 °F 33% 30.27 in 10.0 mi NNW 8.1 mph - N/A   Clear
2:55 PM 40.1 °F 38.0 °F 11.7 °F 31% 30.25 in 10.0 mi NW 3.5 mph - N/A   Clear
3:15 PM 40.3 °F 38.2 °F 10.9 °F 30% 30.23 in 10.0 mi NNW 3.5 mph - N/A   Clear
3:35 PM 40.5 °F 38.4 °F 9.7 °F 28% 30.22 in 10.0 mi West 3.5 mph - N/A   Clear
3:55 PM 42.1 °F 38.4 °F 12.2 °F 30% 30.21 in 10.0 mi NNW 5.8 mph - N/A   Clear
4:15 PM 41.5 °F 39.6 °F 11.1 °F 29% 30.20 in 10.0 mi SSW 3.5 mph - N/A   Clear
4:35 PM 42.4 °F 39.6 °F 10.6 °F 27% 30.18 in 10.0 mi NNE 4.6 mph - N/A   Clear
4:55 PM 42.1 °F - 10.6 °F 28% 30.17 in 10.0 mi Calm Calm - N/A   Clear
5:15 PM 43.3 °F 39.9 °F 12.2 °F 28% 30.16 in 10.0 mi West 5.8 mph - N/A   Clear
5:35 PM 42.6 °F - 10.4 °F 27% 30.15 in 10.0 mi Calm Calm - N/A   Clear
5:55 PM 42.6 °F - 10.6 °F 27% 30.14 in 10.0 mi Calm Calm - N/A   Clear
6:15 PM 42.8 °F - 10.4 °F 27% 30.14 in 10.0 mi Calm Calm - N/A   Clear
6:35 PM 42.8 °F - 11.1 °F 28% 30.13 in 10.0 mi Calm Calm - N/A   Clear
6:55 PM 41.9 °F 40.0 °F 12.0 °F 30% 30.13 in 10.0 mi SSW 3.5 mph - N/A   Clear
7:15 PM 41.0 °F - 11.7 °F 30% 30.13 in 10.0 mi Calm Calm - N/A   Clear
7:35 PM 36.5 °F 32.7 °F 16.0 °F 43% 30.12 in 10.0 mi SE 4.6 mph - N/A   Clear
7:55 PM 33.3 °F 30.2 °F 17.1 °F 51% 30.12 in 10.0 mi SE 3.5 mph - N/A   Clear
8:15 PM 31.8 °F 27.3 °F 18.7 °F 58% 30.10 in 10.0 mi SE 4.6 mph - N/A   Clear
8:35 PM 30.7 °F 24.9 °F 18.1 °F 60% 30.09 in 10.0 mi SE 5.8 mph - N/A   Clear
8:55 PM 32.4 °F - 17.8 °F 55% 30.09 in 10.0 mi Calm Calm - N/A   Clear
9:15 PM 31.3 °F 25.6 °F 17.2 °F 56% 30.08 in 10.0 mi ESE 5.8 mph - N/A   Clear
9:35 PM 32.5 °F - 16.9 °F 53% 30.07 in 10.0 mi Calm Calm - N/A   Clear
9:55 PM 32.4 °F 27.9 °F 16.2 °F 51% 30.06 in 10.0 mi ESE 4.6 mph - N/A   Clear
10:15 PM 32.0 °F 26.4 °F 16.2 °F 52% 30.06 in 10.0 mi ESE 5.8 mph - N/A   Clear
10:35 PM 32.0 °F 25.6 °F 15.8 °F 51% 30.06 in 10.0 mi ESE 6.9 mph - N/A   Clear
10:55 PM 32.0 °F 26.4 °F 15.8 °F 51% 30.06 in 10.0 mi ESE 5.8 mph - N/A   Clear
11:15 PM 32.0 °F 24.8 °F 15.6 °F 51% 30.05 in 10.0 mi ESE 8.1 mph - N/A   Clear
11:35 PM 32.0 °F 25.6 °F 15.1 °F 50% 30.05 in 10.0 mi ESE 6.9 mph - N/A   Clear
11:55 PM 32.0 °F 26.4 °F 15.3 °F 50% 30.05 in 10.0 mi ESE 5.8 mph - N/A   Clear